Printer-friendly version

IAU Minor Planet Center

Minor Planet Center

MPEC 2006-B31 : 2006 BP6

The following Minor Planet Electronic Circular may be linked-to from your own Web pages, but must not otherwise be redistributed electronically.


Read MPEC 2006-B30 Read MPEC 2006-B32


M.P.E.C. 2006-B31                                Issued 2006 Jan. 24, 03:08 UT

     The Minor Planet Electronic Circulars contain information on unusual
         minor planets and routine data on comets.  They are published
   on behalf of Commission 20 of the International Astronomical Union by the
          Minor Planet Center, Smithsonian Astrophysical Observatory,
                          Cambridge, MA 02138, U.S.A.

                  Supported in part by the Brinson Foundation
                  Supported in part by the TABASGO Foundation
             Prepared using the Tamkin Foundation Computer Network

                              MPC@CFA.HARVARD.EDU
          URL http://cfa-www.harvard.edu/iau/mpc.html  ISSN 1523-6714

                                   2006 BP6

Observations:
     K06B06P  C2006 01 04.34281 08 15 05.31 +21 47 49.8          21.0 V EB031691
     K06B06P  C2006 01 04.36017 08 15 04.97 +21 48 27.1          21.0 V EB031691
     K06B06P  C2006 01 04.37760 08 15 04.63 +21 49 03.9          20.9 V EB031691
     K06B06P* C2006 01 22.34214 08 03 03.38 +37 05 54.7          20.3 V EB031703
     K06B06P  C2006 01 22.34969 08 03 02.77 +37 06 26.8          19.4 V EB031703
     K06B06P  C2006 01 22.35716 08 03 02.01 +37 06 56.0          20.3 V EB031703
     K06B06P  C2006 01 22.36465 08 03 01.51 +37 07 25.9          20.6 V EB031703
     K06B06P  C2006 01 22.41157 08 02 57.62 +37 10 34.7          19.3 V EB031703
     K06B06P  C2006 01 22.41244 08 02 57.58 +37 10 39.8          19.8 V EB031703
     K06B06P  C2006 01 22.41331 08 02 57.44 +37 10 43.4          19.7 V EB031703
     K06B06P  C2006 01 22.41419 08 02 57.44 +37 10 46.9          19.9 V EB031703
     K06B06P  C2006 01 22.45241 08 02 54.31 +37 13 15.7          18.6 V EB031703
     K06B06P  C2006 01 22.45415 08 02 54.27 +37 13 26.7          19.6 V EB031703
     K06B06P  C2006 01 22.45593 08 02 54.09 +37 13 34.2          19.7 V EB031703
     K06B06P  C2006 01 22.45767 08 02 53.91 +37 13 42.1          19.5 V EB031703
     K06B06P  C2006 01 23.18635 08 02 02.59 +38 03 43.3          19.4 R EB031734
     K06B06P  C2006 01 23.18929 08 02 02.31 +38 03 56.7          19.8 R EB031734
     K06B06P  C2006 01 23.19223 08 02 02.03 +38 04 09.1          20.0 R EB031734
     K06B06P  C2006 01 23.19519 08 02 01.82 +38 04 21.5          19.8 R EB031734
     K06B06P  C2006 01 23.23964 08 01 58.47 +38 07 29.0          19.6 V EB031G96
     K06B06P  C2006 01 23.24029 08 01 58.44 +38 07 31.9          19.6 V EB031G96
     K06B06P  C2006 01 23.24148 08 01 58.29 +38 07 36.6          19.6 V EB031G96
     K06B06P  C2006 01 23.24213 08 01 58.29 +38 07 39.4          19.6 V EB031G96
     K06B06P  C2006 01 23.24329 08 01 58.18 +38 07 44.6          19.7 V EB031G96
     K06B06P  C2006 01 23.24395 08 01 58.11 +38 07 47.3          19.5 V EB031G96
     K06B06P  C2006 01 23.24513 08 01 57.97 +38 07 52.2          19.6 V EB031G96
     K06B06P  C2006 01 23.24578 08 01 57.93 +38 07 54.9          19.7 V EB031G96
     K06B06P  C2006 01 23.29493 08 01 53.68 +38 11 20.6          19.8 V EB031G96
     K06B06P  C2006 01 23.30277 08 01 53.00 +38 11 53.3          19.7 V EB031G96
     K06B06P  C2006 01 23.31054 08 01 52.35 +38 12 25.4          19.6 V EB031G96
     K06B06P  C2006 01 23.31832 08 01 51.67 +38 12 58.0          19.8 V EB031G96
     K06B06P  C2006 01 23.33612 08 01 50.19 +38 14 13.1          19.8 R EB031651
     K06B06P  C2006 01 23.33980 08 01 49.81 +38 14 28.5          19.8 R EB031651
     K06B06P  C2006 01 23.34349 08 01 49.36 +38 14 43.9          19.8 R EB031651

Observer details:
651 Grasslands Observatory, Tucson.  Observer J. E. McGaha.  0.62-m f/5.1
    reflector + CCD.
691 Steward Observatory, Kitt Peak.  Observer M. T. Read.  0.9-m f/3 reflector
    + CCD.
703 Catalina Sky Survey.  Observer R. Hill.  Measurers E. C. Beshore,
    E. J. Christensen, G. J. Garradd, A. D. Grauer, R. E. Hill, R. A. Kowalski,
    S. M. Larson, R. H. McNaught.  0.68-m Schmidt + CCD.
734 Farpoint Observatory.  Observers D. Tibbets, K. Dobbs.  Measurer G. Hug.
    0.7-m reflector + CCD.
G96 Mt. Lemmon Survey.  Observer E. C. Beshore.  Measurers E. C. Beshore,
    E. J. Christensen, G. J. Garradd, A. D. Grauer, R. E. Hill, R. A. Kowalski,
    S. M. Larson, R. H. McNaught.  1.5-m reflector + CCD.

Orbital elements:
2006 BP6                                                 Earth MOID = 0.2426 AU
Epoch 2006 Jan. 5.0 TT = JDT 2453740.5                  MPC
M 337.44086              (2000.0)            P               Q
n   0.25613493     Peri.   87.84246     -0.91111070     +0.27024810
a   2.4555956      Node   107.71950     -0.36069108     -0.88816347
e   0.6098985      Incl.   19.06833     +0.19944732     -0.37166062
P   3.85           H   20.7           G   0.15
From 34 observations 2006 Jan. 4-23.

Ephemeris:
2006 BP6                 a,e,i = 2.46, 0.61, 19                  q = 0.9579
Date    TT    R. A. (2000) Decl.     Delta      r     Elong.  Phase     V
2006 01 15    08 10.07   +29 39.1    0.408    1.387   170.0     7.1    20.0
2006 01 25    07 59.64   +40 12.3    0.339    1.305   158.0    16.4    19.8
2006 02 04    07 41.24   +53 23.9    0.298    1.226   139.1    31.7    19.9
2006 02 14    07 08.21   +67 23.4    0.281    1.153   119.7    48.1    20.1
2006 02 24    05 40.97   +79 45.1    0.281    1.087   102.7    62.7    20.4
2006 03 06    23 49.63   +83 27.2    0.291    1.031    89.4    74.2    20.7
2006 03 16    21 12.68   +75 10.7    0.305    0.989    80.2    82.2    21.0
2006 03 26    20 36.13   +65 57.5    0.319    0.964    74.8    86.6    21.2
2006 04 05    20 23.53   +57 02.4    0.331    0.958    73.2    87.5    21.3
2006 04 15    20 19.87   +48 30.5    0.342    0.972    74.9    85.3    21.3
2006 04 25    20 19.79   +40 23.2    0.349    1.003    79.6    80.4    21.2
2006 05 05    20 19.77   +32 31.4    0.353    1.051    87.0    73.4    21.1
2006 05 15    20 17.48   +24 35.4    0.355    1.111    96.9    64.6    21.0
2006 05 25    20 11.27   +16 15.6    0.357    1.180   109.4    54.1    20.8
2006 06 04    20 00.22   +07 20.6    0.365    1.256   124.2    41.9    20.6
2006 06 14    19 44.92   -01 51.9    0.386    1.336   140.6    28.8    20.5
2006 06 24    19 27.17   -10 32.5    0.426    1.419   157.5    15.9    20.5
2006 07 04    19 09.76   -17 49.6    0.489    1.503   173.3     4.5    20.4
2006 07 14    18 55.40   -23 19.0    0.575    1.588   171.3     5.5    21.0
2006 07 24    18 45.58   -27 09.0    0.684    1.672   158.9    12.7    21.7

Gareth V. Williams           (C) Copyright 2006 MPC           M.P.E.C. 2006-B31

Read MPEC 2006-B30 Read MPEC 2006-B32


Our Web policy. Index to the CBAT/MPC/ICQ pages.


Valid HTML 4.01!